| time (UTC) | temp F | wind direction | speed knots | gust knots | rain 1hr in | rain 24hr in | rain mn in | humidity % | barometer mb |
| 20260906092604 | 70 | 0.0 | 0.0 | 0.00 | 0.37 | 0.00 | 100 | 1011.6 | |
| 20260906091524 | 70 | 75 | 0.0 | 0.9 | 0.00 | 0.37 | 0.00 | 100 | 1011.6 |
| 20260906090524 | 70 | 192 | 0.0 | 0.9 | 0.00 | 0.37 | 0.00 | 100 | 1011.5 |
| 20260906085524 | 70 | 95 | 0.9 | 1.7 | 0.00 | 0.37 | 0.00 | 100 | 1011.4 |
| 20260906084544 | 70 | 335 | 0.0 | 0.9 | 0.00 | 0.37 | 0.00 | 100 | 1011.4 |
| 20260906083538 | 70 | 91 | 0.9 | 1.7 | 0.00 | 0.37 | 0.00 | 100 | 1011.4 |
| 20260906082524 | 70 | 102 | 0.9 | 0.9 | 0.00 | 0.37 | 0.00 | 100 | 1011.4 |
| 20260906081545 | 70 | 0.0 | 0.0 | 0.00 | 0.37 | 0.00 | 100 | 1011.4 | |
| 20260906080529 | 70 | 0.0 | 0.0 | 0.00 | 0.37 | 0.00 | 100 | 1011.2 | |
| 20260906075525 | 70 | 278 | 0.0 | 0.9 | 0.00 | 0.37 | 0.00 | 100 | 1011.1 |
| 20260906074526 | 70 | 329 | 0.9 | 0.9 | 0.00 | 0.37 | 0.00 | 100 | 1011.2 |
| 20260906073526 | 70 | 340 | 0.0 | 1.7 | 0.00 | 0.37 | 0.00 | 100 | 1011.2 |
| 20260906072545 | 70 | 141 | 0.0 | 0.0 | 0.00 | 0.37 | 0.00 | 100 | 1011.1 |
| 20260906071526 | 71 | 0.0 | 0.0 | 0.00 | 0.37 | 0.00 | 100 | 1011.1 | |
| 20260906070526 | 71 | 0.0 | 0.0 | 0.00 | 0.37 | 0.00 | 100 | 1011.2 | |
| 20260906065526 | 71 | 170 | 0.0 | 0.9 | 0.00 | 0.37 | 0.00 | 100 | 1011.3 |
| 20260906064526 | 71 | 208 | 0.0 | 0.9 | 0.00 | 0.37 | 0.00 | 100 | 1011.4 |
| 20260906063534 | 70 | 6 | 0.0 | 0.9 | 0.00 | 0.37 | 0.00 | 100 | 1011.4 |
| 20260906062526 | 70 | 34 | 0.0 | 0.9 | 0.00 | 0.37 | 0.00 | 100 | 1011.4 |
| 20260906061527 | 71 | 0.0 | 0.0 | 0.00 | 0.37 | 0.00 | 100 | 1011.5 | |
| 20260906060547 | 70 | 100 | 0.0 | 0.9 | 0.00 | 0.37 | 0.00 | 100 | 1011.6 |
| 20260906055529 | 71 | 8 | 0.0 | 0.0 | 0.00 | 0.37 | 0.00 | 100 | 1011.7 |
| 20260906054547 | 71 | 222 | 0.0 | 0.0 | 0.00 | 0.37 | 0.00 | 100 | 1011.8 |
| 20260906053527 | 71 | 0.0 | 0.0 | 0.00 | 0.37 | 0.00 | 100 | 1011.9 | |
| 20260906052528 | 71 | 98 | 0.9 | 1.7 | 0.00 | 0.37 | 0.00 | 100 | 1012.0 |
| 20260906051528 | 71 | 110 | 0.9 | 1.7 | 0.00 | 0.37 | 0.00 | 100 | 1011.9 |
| 20260906050528 | 71 | 81 | 0.9 | 0.9 | 0.00 | 0.37 | 0.00 | 100 | 1012.0 |
| 20260906045528 | 71 | 154 | 0.9 | 1.7 | 0.00 | 0.37 | 0.00 | 100 | 1012.0 |
| 20260906044528 | 71 | 76 | 0.9 | 0.9 | 0.00 | 0.37 | 0.00 | 100 | 1012.0 |
| 20260906043528 | 71 | 98 | 0.9 | 1.7 | 0.00 | 0.37 | 0.00 | 100 | 1012.0 |
| 20260906042550 | 71 | 96 | 1.7 | 1.7 | 0.00 | 0.37 | 0.00 | 100 | 1012.2 |
| 20260906041529 | 72 | 102 | 1.7 | 1.7 | 0.00 | 0.37 | 0.00 | 100 | 1012.1 |
| 20260906040549 | 72 | 107 | 1.7 | 2.6 | 0.00 | 0.37 | 0.00 | 100 | 1012.0 |
| 20260906035529 | 72 | 106 | 0.9 | 2.6 | 0.00 | 0.37 | 0.37 | 100 | 1012.1 |
| 20260906034534 | 72 | 95 | 0.9 | 2.6 | 0.00 | 0.37 | 0.37 | 100 | 1012.1 |
| 20260906033529 | 72 | 117 | 1.7 | 1.7 | 0.00 | 0.37 | 0.37 | 100 | 1012.2 |
| 20260906032529 | 72 | 115 | 0.9 | 0.9 | 0.00 | 0.37 | 0.37 | 100 | 1012.4 |
| 20260906031550 | 72 | 123 | 1.7 | 2.6 | 0.00 | 0.37 | 0.37 | 100 | 1012.5 |
| 20260906030530 | 72 | 114 | 0.9 | 1.7 | 0.00 | 0.37 | 0.37 | 100 | 1012.5 |
| 20260906025530 | 72 | 71 | 0.9 | 1.7 | 0.00 | 0.37 | 0.37 | 100 | 1012.4 |
| 20260906024530 | 72 | 122 | 0.9 | 1.7 | 0.00 | 0.37 | 0.37 | 100 | 1012.5 |
| 20260906023531 | 71 | 110 | 0.9 | 0.9 | 0.00 | 0.37 | 0.37 | 100 | 1012.3 |
| 20260906022530 | 71 | 0.0 | 0.0 | 0.00 | 0.37 | 0.37 | 100 | 1012.2 | |
| 20260906021531 | 72 | 325 | 1.7 | 1.7 | 0.00 | 0.37 | 0.37 | 100 | 1012.1 |
| 20260906020531 | 72 | 61 | 0.0 | 0.9 | 0.00 | 0.37 | 0.37 | 100 | 1012.0 |
| 20260906015533 | 72 | 142 | 0.0 | 0.9 | 0.00 | 0.37 | 0.37 | 100 | 1011.9 |
| 20260906014516 | 72 | 155 | 0.0 | 0.9 | 0.00 | 0.37 | 0.37 | 100 | 1011.8 |
| 20260906013531 | 72 | 0.0 | 0.0 | 0.00 | 0.37 | 0.37 | 100 | 1011.7 | |
| 20260906012532 | 72 | 106 | 0.9 | 1.7 | 0.00 | 0.37 | 0.37 | 100 | 1011.6 |
| 20260906011532 | 72 | 154 | 0.9 | 0.9 | 0.00 | 0.37 | 0.37 | 100 | 1011.5 |
| 20260906010532 | 72 | 100 | 0.9 | 1.7 | 0.00 | 0.37 | 0.37 | 100 | 1011.6 |
| 20260906005532 | 72 | 118 | 0.9 | 1.7 | 0.00 | 0.37 | 0.37 | 100 | 1011.4 |
| 20260906004532 | 72 | 177 | 0.0 | 0.9 | 0.00 | 0.37 | 0.37 | 100 | 1011.4 |
| 20260906003517 | 72 | 348 | 1.7 | 4.3 | 0.00 | 0.37 | 0.37 | 100 | 1011.6 |
| 20260906002517 | 72 | 283 | 1.7 | 3.5 | 0.00 | 0.37 | 0.37 | 99 | 1011.6 |
| 20260906001518 | 72 | 355 | 1.7 | 4.3 | 0.00 | 0.37 | 0.37 | 99 | 1011.7 |
| 20260906000518 | 73 | 303 | 1.7 | 4.3 | 0.01 | 0.37 | 0.37 | 99 | 1011.6 |
| 20260905235518 | 73 | 163 | 0.9 | 2.6 | 0.01 | 0.37 | 0.37 | 97 | 1011.3 |
| 20260905234525 | 73 | 113 | 2.6 | 3.5 | 0.01 | 0.37 | 0.37 | 97 | 1011.4 |
| 20260905233518 | 73 | 106 | 1.7 | 3.5 | 0.01 | 0.37 | 0.37 | 98 | 1011.6 |
| 20260905232518 | 73 | 102 | 2.6 | 4.3 | 0.01 | 0.37 | 0.37 | 96 | 1011.5 |
| 20260905231538 | 74 | 341 | 1.7 | 3.5 | 0.03 | 0.37 | 0.37 | 95 | 1011.2 |
| 20260905230539 | 74 | 170 | 0.9 | 2.6 | 0.11 | 0.36 | 0.36 | 98 | 1011.2 |
| 20260905225519 | 74 | 240 | 0.9 | 1.7 | 0.27 | 0.36 | 0.36 | 96 | 1011.1 |
| 20260905224605 | 74 | 320 | 2.6 | 6.1 | 0.36 | 0.36 | 0.36 | 96 | 1010.8 |
| 20260905223519 | 74 | 102 | 2.6 | 3.5 | 0.36 | 0.36 | 0.36 | 96 | 1010.6 |
| 20260905222520 | 75 | 317 | 0.9 | 2.6 | 0.36 | 0.36 | 0.36 | 96 | 1010.9 |
| 20260905221519 | 76 | 322 | 2.6 | 5.2 | 0.34 | 0.34 | 0.34 | 96 | 1011.4 |
| 20260905220516 | 80 | 330 | 3.5 | 8.7 | 0.26 | 0.26 | 0.26 | 92 | 1012.4 |
| 20260905215519 | 88 | 37 | 4.3 | 11.3 | 0.09 | 0.09 | 0.09 | 75 | 1012.6 |
| 20260905214523 | 94 | 107 | 4.3 | 10.4 | 0.00 | 0.00 | 0.00 | 61 | 1011.2 |
| 20260905213520 | 96 | 123 | 0.9 | 1.7 | 0.00 | 0.00 | 0.00 | 58 | 1009.7 |
| 20260905212518 | 96 | 321 | 1.7 | 2.6 | 0.00 | 0.00 | 0.00 | 58 | 1009.0 |
| 20260905211520 | 97 | 171 | 0.9 | 2.6 | 0.00 | 0.00 | 0.00 | 57 | 1008.9 |
| 20260905210520 | 98 | 122 | 1.7 | 4.3 | 0.00 | 0.00 | 0.00 | 56 | 1008.9 |
| 20260905205600 | 97 | 127 | 0.9 | 1.7 | 0.00 | 0.00 | 0.00 | 56 | 1009.0 |
| 20260905204521 | 97 | 272 | 0.9 | 2.6 | 0.00 | 0.00 | 0.00 | 56 | 1009.0 |
| 20260905203521 | 97 | 165 | 0.9 | 1.7 | 0.00 | 0.00 | 0.00 | 57 | 1009.0 |
| 20260905202521 | 97 | 12 | 1.7 | 1.7 | 0.00 | 0.00 | 0.00 | 57 | 1009.2 |
| 20260905201521 | 97 | 347 | 1.7 | 3.5 | 0.00 | 0.00 | 0.00 | 57 | 1009.3 |
| 20260905200521 | 97 | 331 | 0.9 | 2.6 | 0.00 | 0.00 | 0.00 | 58 | 1009.3 |
| 20260905195521 | 97 | 166 | 1.7 | 4.3 | 0.00 | 0.00 | 0.00 | 59 | 1009.4 |
| 20260905194522 | 97 | 338 | 0.9 | 1.7 | 0.00 | 0.00 | 0.00 | 58 | 1009.4 |
| 20260905193521 | 96 | 99 | 0.9 | 2.6 | 0.00 | 0.00 | 0.00 | 59 | 1009.5 |
| 20260905192541 | 96 | 86 | 0.9 | 1.7 | 0.00 | 0.00 | 0.00 | 58 | 1009.7 |
| 20260905191522 | 97 | 132 | 0.9 | 1.7 | 0.00 | 0.00 | 0.00 | 57 | 1009.8 |
| 20260905190522 | 97 | 111 | 0.9 | 2.6 | 0.00 | 0.00 | 0.00 | 56 | 1009.9 |
| 20260905185522 | 98 | 165 | 0.9 | 1.7 | 0.00 | 0.00 | 0.00 | 55 | 1010.0 |
| 20260905184522 | 98 | 123 | 0.9 | 2.6 | 0.00 | 0.00 | 0.00 | 54 | 1010.2 |
| 20260905183522 | 98 | 125 | 2.6 | 5.2 | 0.00 | 0.00 | 0.00 | 54 | 1010.5 |
| 20260905182523 | 97 | 120 | 2.6 | 4.3 | 0.00 | 0.00 | 0.00 | 54 | 1010.6 |
| 20260905181522 | 96 | 123 | 2.6 | 3.5 | 0.00 | 0.00 | 0.00 | 56 | 1010.8 |
| 20260905180523 | 96 | 107 | 1.7 | 4.3 | 0.00 | 0.00 | 0.00 | 57 | 1011.1 |
| 20260905175523 | 96 | 115 | 2.6 | 4.3 | 0.00 | 0.00 | 0.00 | 58 | 1011.1 |
| 20260905174517 | 97 | 123 | 2.6 | 4.3 | 0.00 | 0.00 | 0.00 | 57 | 1011.3 |
| 20260905173523 | 96 | 153 | 1.7 | 3.5 | 0.00 | 0.00 | 0.00 | 58 | 1011.4 |
| 20260905172537 | 95 | 119 | 3.5 | 5.2 | 0.00 | 0.00 | 0.00 | 60 | 1011.6 |
| 20260905171604 | 95 | 143 | 1.7 | 2.6 | 0.00 | 0.00 | 0.00 | 59 | 1011.7 |
| 20260905170523 | 94 | 135 | 0.9 | 2.6 | 0.00 | 0.00 | 0.00 | 60 | 1012.0 |
| 20260905165538 | 93 | 110 | 2.6 | 4.3 | 0.00 | 0.00 | 0.00 | 62 | 1012.2 |
| 20260905164547 | 93 | 113 | 2.6 | 3.5 | 0.00 | 0.00 | 0.00 | 64 | 1012.3 |
| 20260905163525 | 94 | 115 | 2.6 | 3.5 | 0.00 | 0.00 | 0.00 | 61 | 1012.4 |
| 20260905162519 | 93 | 123 | 1.7 | 4.3 | 0.00 | 0.00 | 0.00 | 62 | 1012.6 |
| 20260905161544 | 92 | 91 | 2.6 | 4.3 | 0.00 | 0.00 | 0.00 | 63 | 1012.8 |
| 20260905160527 | 92 | 116 | 2.6 | 4.3 | 0.00 | 0.00 | 0.00 | 65 | 1012.9 |
| 20260905155518 | 92 | 132 | 1.7 | 5.2 | 0.00 | 0.00 | 0.00 | 67 | 1013.0 |
| 20260905154524 | 91 | 106 | 2.6 | 3.5 | 0.00 | 0.00 | 0.00 | 69 | 1013.1 |
| 20260905153524 | 90 | 111 | 2.6 | 3.5 | 0.00 | 0.00 | 0.00 | 71 | 1013.4 |
| 20260905152524 | 90 | 122 | 1.7 | 3.5 | 0.00 | 0.00 | 0.00 | 71 | 1013.4 |
| 20260905151524 | 89 | 112 | 2.6 | 4.3 | 0.00 | 0.00 | 0.00 | 73 | 1013.6 |
| 20260905150525 | 88 | 125 | 1.7 | 2.6 | 0.00 | 0.00 | 0.00 | 75 | 1013.7 |
| 20260905145525 | 87 | 119 | 1.7 | 3.5 | 0.00 | 0.00 | 0.00 | 77 | 1013.7 |
| 20260905144525 | 87 | 112 | 2.6 | 4.3 | 0.00 | 0.00 | 0.00 | 77 | 1013.8 |
| 20260905143525 | 87 | 124 | 1.7 | 2.6 | 0.00 | 0.00 | 0.00 | 78 | 1014.0 |
| 20260905142520 | 86 | 105 | 1.7 | 4.3 | 0.00 | 0.00 | 0.00 | 80 | 1014.0 |
| 20260905141544 | 85 | 107 | 2.6 | 3.5 | 0.00 | 0.00 | 0.00 | 81 | 1014.2 |
| 20260905140526 | 84 | 106 | 2.6 | 4.3 | 0.00 | 0.00 | 0.00 | 83 | 1014.1 |
| 20260905135520 | 83 | 107 | 2.6 | 4.3 | 0.00 | 0.00 | 0.00 | 84 | 1014.1 |
| 20260905134533 | 83 | 107 | 2.6 | 5.2 | 0.00 | 0.00 | 0.00 | 85 | 1014.2 |
| 20260905133526 | 83 | 110 | 2.6 | 4.3 | 0.00 | 0.00 | 0.00 | 85 | 1014.3 |
| 20260905132526 | 82 | 105 | 1.7 | 2.6 | 0.00 | 0.00 | 0.00 | 86 | 1014.4 |
| 20260905131528 | 82 | 116 | 1.7 | 2.6 | 0.00 | 0.00 | 0.00 | 88 | 1014.4 |
| 20260905130547 | 80 | 111 | 1.7 | 2.6 | 0.00 | 0.00 | 0.00 | 91 | 1014.5 |
| 20260905125618 | 80 | 105 | 2.6 | 3.5 | 0.00 | 0.00 | 0.00 | 92 | 1014.5 |
| 20260905124527 | 79 | 111 | 1.7 | 2.6 | 0.00 | 0.00 | 0.00 | 94 | 1014.5 |
| 20260905123527 | 78 | 116 | 2.6 | 4.3 | 0.00 | 0.00 | 0.00 | 95 | 1014.5 |
| 20260905122527 | 78 | 107 | 1.7 | 2.6 | 0.00 | 0.00 | 0.00 | 96 | 1014.5 |
| 20260905121527 | 77 | 108 | 2.6 | 4.3 | 0.00 | 0.00 | 0.00 | 97 | 1014.3 |
| 20260905120547 | 76 | 111 | 1.7 | 2.6 | 0.00 | 0.00 | 0.00 | 99 | 1014.3 |
| 20260905115605 | 75 | 114 | 1.7 | 3.5 | 0.00 | 0.00 | 0.00 | 100 | 1014.3 |
| 20260905114528 | 75 | 315 | 0.0 | 1.7 | 0.00 | 0.00 | 0.00 | 100 | 1014.3 |
| 20260905113541 | 75 | 167 | 0.0 | 0.9 | 0.00 | 0.00 | 0.00 | 100 | 1014.2 |
| 20260905112528 | 74 | 119 | 0.9 | 0.9 | 0.00 | 0.00 | 0.00 | 100 | 1014.1 |
| 20260905111528 | 74 | 113 | 0.9 | 0.9 | 0.00 | 0.00 | 0.00 | 100 | 1014.0 |
| 20260905110528 | 74 | 110 | 0.9 | 0.9 | 0.00 | 0.00 | 0.00 | 100 | 1013.9 |
| 20260905105530 | 74 | 125 | 0.9 | 0.9 | 0.00 | 0.00 | 0.00 | 100 | 1013.7 |
| 20260905104529 | 74 | 112 | 0.9 | 1.7 | 0.00 | 0.00 | 0.00 | 100 | 1013.6 |
| 20260905103529 | 74 | 131 | 0.0 | 0.9 | 0.00 | 0.00 | 0.00 | 100 | 1013.7 |
| 20260905102529 | 74 | 0.0 | 0.0 | 0.00 | 0.00 | 0.00 | 100 | 1013.6 | |
| 20260905101529 | 74 | 0.0 | 0.0 | 0.00 | 0.00 | 0.00 | 100 | 1013.5 | |
| 20260905100538 | 75 | 0.0 | 0.0 | 0.00 | 0.00 | 0.00 | 100 | 1013.4 | |
| 20260905095530 | 75 | 6 | 0.0 | 0.9 | 0.00 | 0.00 | 0.00 | 100 | 1013.3 |
| 20260905094530 | 75 | 330 | 0.0 | 0.9 | 0.00 | 0.00 | 0.00 | 100 | 1013.4 |
| 20260905093530 | 75 | 0.0 | 0.0 | 0.00 | 0.00 | 0.00 | 100 | 1013.4 |